Location: Heidgraben
(53.7081°N, 9.6576°E)
Time: 10:54:15
(UTC+00:00)

Okean 3 Rocket - Pass Details

Date: 05 July 2020
Orbit: 614 x 645 km, 82.5° (Epoch: 05 August)

Event Time Altitude Azimuth Distance (km) Brightness Sun altitude
Exits shadow 22:47:02 20° 182° (S) 1,464 4.9 -13.2°
Maximum altitude 22:50:05 77° 99° (E) 651 3.6 -13.2°
Drops below altitude 10° 22:54:32 10° 14° (NNE) 2,008 7.4 -13.3°
Sets 22:56:46 0° 13° (NNE) 2,915 8.5 -13.4°
